Time,TemperatureF,DewpointF,PressureIn,WindDirection,WindDirectionDegrees,WindSpeedMPH,WindSpeedGustMPH,Humidity,HourlyPrecipIn,Conditions,Clouds,dailyrainin,SoftwareType,DateUTC
2013-11-25 00:12:00,26.0,18.0,30.58,East,90,0.0,0.0,70,0.00,,,0.00,,2013-11-25 06:12:00,
2013-11-25 00:22:00,26.0,18.0,30.58,East,97,0.0,0.0,70,0.00,,,0.00,,2013-11-25 06:22:00,
2013-11-25 00:42:00,26.0,18.0,30.56,ESE,105,0.0,0.0,70,0.00,,,0.00,,2013-11-25 06:42:00,
2013-11-25 00:52:00,26.0,18.0,30.54,ESE,109,0.0,0.0,70,0.00,,,0.00,,2013-11-25 06:52:00,
2013-11-25 01:11:00,26.0,18.0,30.55,East,97,0.0,0.0,70,0.00,,,0.00,,2013-11-25 07:11:00,
2013-11-25 01:21:00,26.0,18.0,30.54,ESE,109,0.0,0.0,70,0.00,,,0.00,,2013-11-25 07:21:00,
2013-11-25 01:42:00,26.0,18.0,30.54,ESE,103,0.0,0.0,70,0.00,,,0.00,,2013-11-25 07:42:00,
2013-11-25 01:52:00,26.0,18.0,30.54,ESE,107,0.0,0.0,71,0.00,,,0.00,,2013-11-25 07:52:00,
2013-11-25 02:11:00,26.0,18.0,30.54,ESE,121,0.0,0.0,70,0.00,,,0.00,,2013-11-25 08:11:00,
2013-11-25 02:22:00,26.0,18.0,30.53,SE,128,0.0,0.0,70,0.00,,,0.00,,2013-11-25 08:22:00,
2013-11-25 02:42:00,26.0,17.0,30.53,SE,142,0.0,0.0,69,0.00,,,0.00,,2013-11-25 08:42:00,
2013-11-25 02:52:00,27.0,18.0,30.51,SE,139,0.0,0.0,69,0.00,,,0.00,,2013-11-25 08:52:00,
2013-11-25 03:11:00,27.0,18.0,30.50,SE,138,0.0,0.0,69,0.00,,,0.00,,2013-11-25 09:11:00,
2013-11-25 03:22:00,27.0,18.0,30.50,SE,138,0.0,0.0,69,0.00,,,0.00,,2013-11-25 09:22:00,
2013-11-25 03:43:00,27.0,19.0,30.49,SSE,161,0.0,0.0,70,0.00,,,0.00,,2013-11-25 09:43:00,
2013-11-25 03:53:00,27.0,18.0,30.48,ESE,121,0.0,0.0,69,0.00,,,0.00,,2013-11-25 09:53:00,
2013-11-25 04:12:00,27.0,19.0,30.47,SSE,167,0.0,0.0,70,0.00,,,0.00,,2013-11-25 10:12:00,
2013-11-25 04:23:00,27.0,19.0,30.47,SE,142,0.0,0.0,70,0.00,,,0.00,,2013-11-25 10:23:00,
2013-11-25 04:42:00,27.0,18.0,30.47,SE,126,0.0,0.0,69,0.00,,,0.00,,2013-11-25 10:42:00,
2013-11-25 04:53:00,27.0,19.0,30.46,SSE,161,0.0,0.0,70,0.00,,,0.00,,2013-11-25 10:53:00,
2013-11-25 05:12:00,27.0,19.0,30.46,SSE,155,0.0,0.0,70,0.00,,,0.00,,2013-11-25 11:12:00,
2013-11-25 05:22:00,28.0,20.0,30.46,SSE,155,0.0,4.0,70,0.00,,,0.00,,2013-11-25 11:22:00,
2013-11-25 05:43:00,28.0,20.0,30.47,South,191,0.0,1.0,70,0.00,,,0.00,,2013-11-25 11:43:00,
2013-11-25 05:52:00,28.0,20.0,30.47,South,170,0.0,0.0,70,0.00,,,0.00,,2013-11-25 11:52:00,
2013-11-25 06:12:00,28.0,20.0,30.47,SSW,192,0.0,0.0,70,0.00,,,0.00,,2013-11-25 12:12:00,
2013-11-25 06:22:00,28.0,18.0,30.46,South,182,0.0,7.0,67,0.00,,,0.00,,2013-11-25 12:22:00,
2013-11-25 06:42:00,28.0,18.0,30.45,SSE,149,0.0,0.0,67,0.00,,,0.00,,2013-11-25 12:42:00,
2013-11-25 06:52:00,28.0,18.0,30.45,SSE,163,0.0,0.0,66,0.00,,,0.00,,2013-11-25 12:52:00,
2013-11-25 07:12:00,28.0,18.0,30.45,SSE,159,0.0,0.0,67,0.00,,,0.00,,2013-11-25 13:12:00,
2013-11-25 07:22:00,28.0,18.0,30.45,SSE,165,0.0,0.0,67,0.00,,,0.00,,2013-11-25 13:22:00,
2013-11-25 07:42:00,28.0,18.0,30.44,SSE,159,0.0,0.0,66,0.00,,,0.00,,2013-11-25 13:42:00,
2013-11-25 07:52:00,29.0,19.0,30.45,South,184,0.0,0.0,67,0.00,,,0.00,,2013-11-25 13:52:00,
2013-11-25 08:11:00,29.0,19.0,30.43,SSE,166,0.0,0.0,66,0.00,,,0.00,,2013-11-25 14:11:00,
2013-11-25 08:22:00,29.0,19.0,30.43,South,190,0.0,0.0,67,0.00,,,0.00,,2013-11-25 14:22:00,
2013-11-25 08:42:00,29.0,19.0,30.41,SSE,159,0.0,0.0,66,0.00,,,0.00,,2013-11-25 14:42:00,
2013-11-25 08:52:00,29.0,19.0,30.42,South,180,0.0,0.0,65,0.00,,,0.00,,2013-11-25 14:52:00,
2013-11-25 09:11:00,30.0,20.0,30.42,South,179,0.0,0.0,66,0.00,,,0.00,,2013-11-25 15:11:00,
2013-11-25 09:22:00,30.0,19.0,30.40,SSE,157,0.0,1.0,64,0.00,,,0.00,,2013-11-25 15:22:00,
2013-11-25 09:44:00,31.0,20.0,30.41,SSE,167,0.0,0.0,64,0.00,,,0.00,,2013-11-25 15:44:00,
2013-11-25 09:54:00,31.0,20.0,30.41,South,181,1.0,8.0,63,0.00,,,0.00,,2013-11-25 15:54:00,
2013-11-25 10:13:00,31.0,20.0,30.42,South,182,0.0,7.0,63,0.00,,,0.00,,2013-11-25 16:13:00,
2013-11-25 10:23:00,32.0,21.0,30.42,SSW,192,0.0,7.0,63,0.00,,,0.00,,2013-11-25 16:23:00,
2013-11-25 10:43:00,32.0,21.0,30.40,SSW,206,0.0,0.0,64,0.00,,,0.00,,2013-11-25 16:43:00,
2013-11-25 10:52:00,33.0,21.0,30.39,SSE,166,2.0,11.0,62,0.00,,,0.00,,2013-11-25 16:52:00,
2013-11-25 11:22:00,34.0,22.0,30.38,SW,216,6.0,10.0,62,0.00,,,0.00,,2013-11-25 17:22:00,
2013-11-25 11:43:00,34.0,22.0,30.37,South,190,7.0,12.0,62,0.00,,,0.00,,2013-11-25 17:43:00,
2013-11-25 11:52:00,34.0,23.0,30.36,SSW,193,0.0,12.0,63,0.00,,,0.00,,2013-11-25 17:52:00,
2013-11-25 12:12:00,34.0,23.0,30.35,SSW,193,0.0,0.0,63,0.00,,,0.00,,2013-11-25 18:12:00,
2013-11-25 12:22:00,34.0,23.0,30.35,SSW,201,0.0,0.0,63,0.00,,,0.00,,2013-11-25 18:22:00,
2013-11-25 12:42:00,34.0,23.0,30.34,South,186,1.0,6.0,63,0.00,,,0.00,,2013-11-25 18:42:00,
2013-11-25 12:52:00,35.0,23.0,30.34,SSE,155,0.0,0.0,61,0.00,,,0.00,,2013-11-25 18:52:00,
2013-11-25 13:11:00,35.0,23.0,30.35,SSW,199,6.0,8.0,61,0.00,,,0.00,,2013-11-25 19:11:00,
2013-11-25 13:22:00,35.0,24.0,30.34,South,182,0.0,0.0,63,0.00,,,0.00,,2013-11-25 19:22:00,
2013-11-25 13:42:00,35.0,23.0,30.33,South,175,0.0,0.0,62,0.00,,,0.00,,2013-11-25 19:42:00,
2013-11-25 13:52:00,35.0,23.0,30.32,SSW,200,0.0,8.0,61,0.00,,,0.00,,2013-11-25 19:52:00,
2013-11-25 14:21:00,36.0,24.0,30.32,SSW,207,0.0,0.0,61,0.00,,,0.00,,2013-11-25 20:21:00,
2013-11-25 14:42:00,36.0,24.0,30.32,SSW,194,0.0,0.0,62,0.00,,,0.00,,2013-11-25 20:42:00,
2013-11-25 14:52:00,36.0,24.0,30.32,SSW,200,0.0,3.0,62,0.00,,,0.00,,2013-11-25 20:52:00,
2013-11-25 15:11:00,36.0,24.0,30.33,SSW,205,0.0,0.0,62,0.00,,,0.00,,2013-11-25 21:11:00,
2013-11-25 15:22:00,36.0,24.0,30.33,SSW,209,0.0,0.0,61,0.00,,,0.00,,2013-11-25 21:22:00,
2013-11-25 15:44:00,36.0,25.0,30.34,SSW,202,0.0,0.0,63,0.00,,,0.00,,2013-11-25 21:44:00,
2013-11-25 15:53:00,35.0,23.0,30.33,West,281,0.0,3.0,62,0.00,,,0.00,,2013-11-25 21:53:00,
2013-11-25 16:13:00,35.0,24.0,30.33,WSW,239,0.0,4.0,65,0.00,,,0.00,,2013-11-25 22:13:00,
2013-11-25 16:23:00,34.0,25.0,30.33,WNW,290,0.0,0.0,69,0.00,,,0.00,,2013-11-25 22:23:00,
2013-11-25 16:43:00,33.0,26.0,30.31,NW,306,2.0,6.0,75,0.00,,,0.00,,2013-11-25 22:43:00,
2013-11-25 16:52:00,33.0,26.0,30.31,NW,306,2.0,6.0,75,0.00,,,0.00,,2013-11-25 22:52:00,
2013-11-25 17:12:00,32.0,26.0,30.30,WNW,288,0.0,0.0,78,0.00,,,0.00,,2013-11-25 23:12:00,
2013-11-25 17:22:00,32.0,26.0,30.30,WNW,288,0.0,0.0,79,0.00,,,0.00,,2013-11-25 23:22:00,
2013-11-25 17:42:00,32.0,27.0,30.32,WNW,288,0.0,0.0,80,0.00,,,0.00,,2013-11-25 23:42:00,
2013-11-25 17:52:00,33.0,28.0,30.32,West,269,0.0,0.0,80,0.00,,,0.00,,2013-11-25 23:52:00,
2013-11-25 18:11:00,33.0,28.0,30.33,West,269,0.0,0.0,80,0.00,,,0.00,,2013-11-26 00:11:00,
2013-11-25 18:21:00,32.0,26.0,30.33,West,269,0.0,0.0,79,0.00,,,0.00,,2013-11-26 00:21:00,
2013-11-25 18:42:00,32.0,26.0,30.31,West,269,0.0,0.0,79,0.00,,,0.00,,2013-11-26 00:42:00,
2013-11-25 18:52:00,32.0,27.0,30.32,West,269,0.0,0.0,80,0.00,,,0.00,,2013-11-26 00:52:00,
2013-11-25 19:21:00,32.0,27.0,30.32,West,269,0.0,0.0,81,0.00,,,0.00,,2013-11-26 01:21:00,
2013-11-25 19:42:00,32.0,27.0,30.33,West,269,0.0,0.0,82,0.00,,,0.00,,2013-11-26 01:42:00,
2013-11-25 19:52:00,32.0,27.0,30.30,West,269,0.0,0.0,83,0.00,,,0.00,,2013-11-26 01:52:00,
2013-11-25 20:11:00,32.0,27.0,30.31,West,269,0.0,0.0,83,0.00,,,0.00,,2013-11-26 02:11:00,
2013-11-25 20:22:00,32.0,27.0,30.29,West,269,0.0,0.0,83,0.00,,,0.00,,2013-11-26 02:22:00,
2013-11-25 20:42:00,32.0,27.0,30.29,West,269,0.0,0.0,82,0.00,,,0.00,,2013-11-26 02:42:00,
2013-11-25 20:52:00,33.0,28.0,30.27,West,269,0.0,0.0,81,0.00,,,0.00,,2013-11-26 02:52:00,
2013-11-25 21:22:00,33.0,28.0,30.27,West,267,0.0,0.0,82,0.00,,,0.00,,2013-11-26 03:22:00,
2013-11-25 21:44:00,33.0,28.0,30.27,South,186,0.0,0.0,80,0.00,,,0.00,,2013-11-26 03:44:00,
2013-11-25 21:53:00,33.0,28.0,30.26,South,186,0.0,0.0,81,0.00,,,0.00,,2013-11-26 03:53:00,
2013-11-25 22:13:00,33.0,28.0,30.26,South,186,0.0,0.0,81,0.00,,,0.00,,2013-11-26 04:13:00,
2013-11-25 22:23:00,33.0,28.0,30.27,South,186,0.0,0.0,81,0.00,,,0.00,,2013-11-26 04:23:00,
2013-11-25 22:43:00,33.0,28.0,30.28,South,186,0.0,0.0,82,0.00,,,0.00,,2013-11-26 04:43:00,
2013-11-25 22:53:00,33.0,28.0,30.29,South,186,0.0,0.0,83,0.00,,,0.00,,2013-11-26 04:53:00,
2013-11-25 23:13:00,33.0,29.0,30.29,South,189,0.0,0.0,84,0.00,,,0.00,,2013-11-26 05:13:00,
2013-11-25 23:23:00,33.0,29.0,30.29,South,185,0.0,0.0,85,0.00,,,0.00,,2013-11-26 05:23:00,
2013-11-25 23:43:00,33.0,29.0,30.29,South,186,0.0,0.0,86,0.00,,,0.00,,2013-11-26 05:43:00,
2013-11-25 23:53:00,33.0,29.0,30.27,South,186,0.0,0.0,86,0.00,,,0.00,,2013-11-26 05:53:00,